EW0322 Weather Reports


Display with metric or nautical units.
time (UTC)temp
F
wind
direction
speed
MPH
gust
MPH
rain 1hr
in
rain 24hr
in
rain mn
in
humidity
%
barometer
mb
20260507191507 77 15 1.0 8.0 0.00 0.00 0.00 20 1008.5
20260507190010 76 15 0.0 8.0 0.00 0.00 0.00 20 1008.9
20260507184600 76 16 0.0 8.0 0.00 0.00 0.00 20 1009.0
20260507183100 75 14 0.0 5.0 0.00 0.00 0.00 21 1009.2
20260507181553 74 15 0.0 5.0 0.00 0.00 0.00 22 1009.5
20260507180053 74 15 1.0 8.0 0.00 0.00 0.00 21 1009.7
20260507174548 73 15 0.0 6.0 0.00 0.00 0.00 23 1009.8
20260507173052 73 14 1.0 9.0 0.00 0.00 0.00 23 1009.9
20260507171542 72 11 2.0 6.0 0.00 0.00 0.00 24 1010.0
20260507170036 71 10 0.0 6.0 0.00 0.00 0.00 24 1010.3
20260506223054 79 232 0.0 12.0 0.00 0.00 0.00 15 1005.5
20260506221553 79 240 0.0 10.0 0.00 0.00 0.00 15 1005.6
20260506220059 79 242 1.0 8.0 0.00 0.00 0.00 15 1005.7
20260506214550 79 257 1.0 10.0 0.00 0.00 0.00 15 1005.8
20260506213050 78 244 1.0 10.0 0.00 0.00 0.00 16 1005.9
20260506211548 78 241 4.0 14.0 0.00 0.00 0.00 16 1006.0
20260506210055 76 224 4.0 13.0 0.00 0.00 0.00 17 1006.3
20260506204550 76 247 4.0 15.0 0.00 0.00 0.00 18 1006.5
20260506203130 78 231 3.0 10.0 0.00 0.00 0.00 16 1006.5
20260506201547 77 268 0.0 8.0 0.00 0.00 0.00 17 1006.9
20260506200047 76 234 1.0 5.0 0.00 0.00 0.00 19 1007.0
20260506194539 75 242 2.0 11.0 0.00 0.00 0.00 19 1007.1
20260506193037 74 238 2.0 12.0 0.00 0.00 0.00 19 1007.4